Regional Weather Roundup
Issued by NWS

Home | Current Version | Previous Version | Graphics & Text | Print | Product List | Glossary On
Versions: 1 2 3 4 5 6 7 8 9 10 11 12 13 14 15 16 17 18 19 20 21 22 23 24 25 26 27 28 29 30 31 32 33 34 35 36 37 38 39 40 41 42 43 44 45 46 47 48 49 50
000
ASUS43 KFSD 270402
RWRSD

WEATHER ROUNDUP FOR SOUTH DAKOTA
NATIONAL WEATHER SERVICE SIOUX FALLS SD
1100 PM CDT THU MAY 26 2016

NOTE: "FAIR" INDICATES FEW OR NO CLOUDS BELOW 12,000 FEET WITH NO
SIGNIFICANT WEATHER AND/OR OBSTRUCTIONS TO VISIBILITY.


SDZ001>005-009-010-012>017-270500-
NORTHWEST AND NORTH CENTRAL SOUTH DAKOTA

CITY           SKY/WX    TMP DP  RH WIND       PRES   REMARKS
BUFFALO          N/A     54  42  64 N8        29.81R
FAITH            N/A     52  41  66 N6        29.85R
MOBRIDGE       CLEAR     59  48  67 N8        29.78R
$$

SDZ012>016-024>037-041>051-057-063-072>074-270500-
SOUTHWEST AND SOUTH CENTRAL SOUTH DAKOTA

CITY           SKY/WX    TMP DP  RH WIND       PRES   REMARKS
RAPID CTY ARPT MOCLDY    53  45  74 N7        29.87R
PIERRE         PTCLDY    57  50  77 N8        29.78R
CUSTER         CLEAR     49  41  74 E3        29.95R
ELLSWORTH AFB  PTCLDY    59  45  59 N7        29.87R
PHILIP         CLOUDY    54  49  83 NW5       29.82R
PINE RIDGE     CLOUDY    53  45  74 NE6       29.84R
WINNER         TSTM      64  57  77 N6        29.82R
$$

SDZ004>011-016>023-039-040-270500-
NORTHEAST SOUTH DAKOTA

CITY           SKY/WX    TMP DP  RH WIND       PRES   REMARKS
ABERDEEN       TSTM      63  55  75 S16       29.83R
WATERTOWN      CLOUDY    65  51  60 S7        29.81R
BROOKINGS      CLOUDY    61  54  77 CALM      29.81R
SISSETON         N/A     64  53  67 N7        29.80R
$$

SDZ017-020-022-023-036>040-048>070-270500-
SOUTHEAST SOUTH DAKOTA

CITY           SKY/WX    TMP DP  RH WIND       PRES   REMARKS
SIOUX FALLS    CLOUDY    67  54  63 S16G24    29.80R
HURON          CLOUDY    65  55  70 CALM      29.80R
MITCHELL       CLOUDY    65  60  84 SE7       29.78R
YANKTON        CLOUDY    64  55  72 S12       29.78R
$$

ABBREVIATIONS USED IN REMARKS
   TC - TEMPERATURE IN CELSIUS
  WCI - WIND CHILL INDEX
   HX - HEAT INDEX
  VSB - VISIBILITY




USA.gov is the U.S. government's official web portal to all federal, state and local government web resources and services.